Погода в Сусумане

Погода в Сусумане : погода сейчас, прогноз погоды и архив. Всё, что Вы хотите узнать о погоде в Сусумане!

Поиск расширенной информации на нашем сайте:

Другие новости

Новости СМИ2

Главная страница сайта

Новости сайта

03.07.2017

Напоминаем, что на нашем специализированном сайте Метеоцентр.Азия вы можете получить высокодетализированные автоматические прогнозы погоды по пунктам России, СНГ и мира в авиационном формате (включающие направление и скорость ветра, видимость, явления погоды, количество и форму облачности, нижнюю и верхнюю границу облачности).

Рекомендуем: Top100 бизнес и финансы базы данных предприятий россии.

Погода в Сусумане - сегодня

Время (UTC), дата Ветер
(°,м/с) 
Видим.   Явления Облачность Т
(°С)
Тd
(°С)
f(%) Тe
(°С)
Pmin
(гПа)
dP
(гПа)
Po
(мм)
O2
(г/м3)
Тmin Tmax R s Состояние
почвы
09 20.01.18 100 (В) 10 км  ледяные иглы{снег}  ясно 
-51.5 -54.1 74 -53  1045.6  0.1  710  354    -49.5       
12 20.01.18 тихо ()   10 км  ледяные иглы{снег}  ясно 
-51.7 -54.1 75 -52  1045.5  -0.2  709  355           
15 20.01.18 040 (СВ) 10 км  ледяные иглы{снег}  ясно 
-49.5 -51.2 82 -51  1043.1  -1.2  708  351           
18 20.01.18 тихо ()   10 км  ледяные иглы{снег}  3/0 верхняя 
[Ci fib]
-47.5 -50 76 -48  1040.9  -1.2  708  347           
21 20.01.18 050 (СВ) 10 км  туман местами{снег}  8/0 средняя, верхняя 
[Ac trans|Ci fib]
-44.6 -46.4 82 -46  1037.5  -1.9  706  342  -51.9      21  неравномерный
сухой снег
100% 
00 21.01.18 060 (СВ) 20000 м  {снег}  10/0 средняя 
[Ac As]
-41.4 -43.8 78 -43  1033.8  -2.1  705  337           
03 21.01.18 тихо ()   10 км  слаб. снег  10/0 средняя 
[As op]
-38.7 -40.2 86 -39  1029.7  -2.7  703  332           
06 21.01.18 тихо ()   10 км  слаб. снег  10/0 средняя 
[As op]
-35.7 -37.5 83 -36  1026.2  -2  701  327           
09 21.01.18 050 (СВ) 7-10{11}  4000 м  слаб. снег  10/0 средняя 
[As op]
-18 -21.5 74 -26  1018.1  -1.5  700  303    -18  0.3     
12 21.01.18 060 (СВ) 6-10{13}  4000 м  слаб. снег  10/0 средняя 
[As op]
-18.1 -22.7 67 -25  1018  -0.1  700  304           
15 21.01.18 050 (СВ) 6-10{12}  4000 м  слаб. снег  10/0 средняя 
[As op]
-18.6 -22.2 73 -26  1017.3  -0.8  699  304           
18 21.01.18 050 (СВ) 7-12{13}  4000 м  слаб. снег  10/0 средняя 
[As op]
-18.8 -22.9 70 -27  1016.2  -1.1  698  304           
21 21.01.18 060 (СВ) 8-12{14}  4000 м  слаб. снег  10/0 средняя 
[As op]
-18.8 -22.7 71 -27  1015.3  -0.9  698  303  -19    17  неравномерный
сухой снег
100% 
00 22.01.18 060 (СВ) 9-14{14}  2000 м  слаб. снег  10/0 средняя 
[As op]
-19.2 -22.4 76 -28  1015  -0.4  698  304  -19.2         
03 22.01.18 050 (СВ) 10-14{15}  2000 м  слаб. снег  10/0 средняя 
[As op]
-18.8 -23 69 -28  1013.5  -1.2  697  303           
06 22.01.18 050 (СВ) 10-15{16}  2000 м  слаб. снег  10/0 средняя 
[As op]
-19.3 -23.8 67 -29  1013.7  697  304           
09 22.01.18 060 (СВ) 8-14{15}  10 км  метель{снег}  9/0 средняя 
[Ac As]
-20.1 -24.8 66 -29  1015.1  1.1  697  305    -18.7     
12 22.01.18 050 (СВ) 7-13{16}  10 км  метель{снег}  9/0 средняя 
[Ac As]
-20.1 -25.5 62 -28  1016.2  0.9  698  305           
15 22.01.18 070 (В) 5{14}  20000 м  позёмок  9/0 средняя 
[Ac As]
-20.4 -26.6 58 -27  1017.5  1.1  699  306           
18 22.01.18 090 (В) 5{11}  10 км  слаб. снег  10/0 средняя 
[Ac As]
-20.8 -27.7 54 -27  1019  1.2  700  307           
21 22.01.18 010 (С) 4{10}  20000 м  позёмок{снег}  8/0 средняя 
[Ac As]
-24.5 -29.4 64 -31  1021.5  1.1  701  312  -24.6    0.8  14  неравномерный
сухой снег
100% 
00 23.01.18 060 (СВ) 20000 м  {снег}  4/0 средняя 
[Ac As]
-22.8 -29.2 56 -27  1022.2  1.2  702  310           
03 23.01.18 050 (СВ) 20000 м    3/0 средняя 
[Ac trans]
-22.5 -29.3 54 -27  1022.1  702  310           
06 23.01.18 360 (С) 10 км  слаб. снег  10/0 средняя 
[Ac As]
-23.1 -27 70 -29  1022.4  -0.1  702  310           
09 23.01.18 060 (СВ) 4000 м  слаб. снег  10/0 средняя 
[Ac As]
-21.8 -25.3 73 -28  1022.4  0.5  702  309    -21.8  0.4     
Время (UTC), дата Ветер
(°,м/с) 
Видим.   Явления Облачность Т
(°С)
Тd
(°С)
f(%) Тe
(°С)
Pmin
(гПа)
dP
(гПа)
Po
(мм)
O2
(г/м3)
Тmin Tmax R s Состояние
почвы

Для получения пояснительной информации подведите курсор к названию столбца.

ПОГОДА в Сусумане - архив

Всё, что Вы хотите узнать о погоде в Сусумане - удобно и подробно!

Выберите нужную дату (начиная с 1 января 2015* года) и нажмите кнопку "Найти".
Будут отображены архивные сводки погоды по пункту Сусуман, начиная с указанной даты.


Отображать данные в формате CSV (для использования в таблицах Excel)


Внимание! Наш архив погоды предназначен исключительно для личного некоммерческого использования в познавательных целях. Если Вам необходимы официальные справки о состоянии погоды (для производственных, юридических, коммерческих и т.п. целей), обращайтесь в органы Росгидромета.

*Примечание: данная дата относится к архиву по метеостанциям СССР (Россия, СНГ, Балтия).
Архив по метеостанциям Зарубежной Европы и Азии (кроме Китая) хранится 10 дней, по другим регионам земного шара (Китай, Африка, Америка, Австралия, Океания) - 1 день.

Сусуман - район местоположения метеостанции


Название, широта, долгота, высота метеостанции:
Сусуман 62.8°ш. 148.2°д. 655 м над ур. моря [Российская Федерация]

Дополнительная информация

В oтличие oт бoльшинства пoгoдных сайтoв мы публикуем пoдрoбную метеoинфoрмацию в детальнoм прoфессиoнальнoм фoрмате.

Характеристики температуры и влажнoсти вoздуха измеряются на высoте 2 м в тени вдали oт зданий и деревьев.
Скoрoсть ветра измеряется на высoте 10 м (на урoвне рoста челoвека скoрoсть ветра ниже в 1.5-2 раза). Если метеoстанция нахoдится в гoрoде или в лесу, тo скoрoсть ветра занижена на 2-4 м/с пo сравнению с oткрытым местoм. Скoрoсть ветра над акватoриями крупных рек и oзёр, а также на вершинах хoлмoв на 2-5 м/с выше, чем в oбычных услoвиях.
Атмoсфернoе давление в разных тoчках местнoсти мoжет значительнo oтличаться oт давления на метеoстанции, в зависимoсти oт услoвий рельефа (при пoдъёме на 10 м давление пoнижается примернo на 1 мм рт.ст.).